Terminal Aerodrome Forecast
Issued by NWS North Platte, NE

Home | Current Version | Previous Version | Text Only | Print | Product List | Glossary On
Versions: 1 2 3 4 5 6 7 8 9 10 11 12 13 14 15
000
FTUS43 KLBF 020021 AAA
TAFVTN
TAF AMD
KVTN 020021Z 0200/0224 22010KT P6SM SKC
     FM020200 18005KT P6SM SKC
     FM021600 33010G17KT P6SM SKC=

USA.gov is the U.S. government's official web portal to all federal, state and local government web resources and services.